Voltar ao catálogo

YZ-1 R/B

AtivoMEO
NORAD 43625·ROCKET BODY·🇨🇳 China

Lançado Sep 19, 2018 de Xichang Satellite Launch Center

Loading…

Próximas Passagens (próximas 24 horas)

TLE

AtualizadoSource: Space-Track

Época: Sep 13, 2026, 11:39 UTC

1 43625U 18072D   26256.48544183 -.00000021  00000-0  00000+0 0  9999
2 43625  56.5101  69.0860 0109651  67.5766 293.6090  1.77481554 51757

Acompanhe YZ-1 R/B em tempo real com AllMySat

Download on the App Store